[[{"header":{"parameterUnit":"m.s-1","parameterCategory":1,"la1":30.2991,"la2":30.254,"lo1":-89.0895,"lo2":-89.0444,"dy":0.0017,"dx":0.0017,"nx":28,"ny":28,"refTime":"2024-04-18T21:00:00:Z","depth":0,"parameterNumber":2,"parameterNumberName":"U-component_of_WINDS"},"data":[0,0,0,0,0,0,0,0,0,0,0,0,0,0,0,0,0,0,0,0,0,0,0,0,0,0,0,0,0,0,0,0,0,0,0,0,0,0,0,0,0,0,0,0,0,0,0,0,0,0,0,0,0,0,0,0,0,0,-0.8175,-0.8176,0,-0.8201,-0.8201,-0.8202,-0.8184,-0.8183,-0.8182,-0.8181,-0.8208,-0.8209,-0.8211,0,0,0,0,0,0,0,0,0,0,0,0,0,-0.8111,-0.8112,-0.8175,-0.8176,-0.8176,-0.8201,-0.8201,-0.8202,-0.8184,-0.8183,-0.8182,-0.8181,-0.8207,-0.8209,-0.8211,0,0,0,0,0,0,0,0,0,0,0,0,0,-0.8138,-0.8113,-0.8175,-0.817,-0.817,-0.8201,-0.8201,-0.8202,-0.8184,-0.8183,-0.8182,-0.8181,-0.8207,-0.8209,-0.8211,-0.8248,0,0,-0.8218,-0.8219,0,0,0,0,0,0,0,0,-0.8137,-0.814,-0.8171,-0.8171,-0.817,-0.8188,-0.8188,-0.8217,-0.8185,-0.8179,-0.8181,-0.818,-0.8202,-0.8205,-0.8212,-0.825,-0.8251,-0.8218,-0.8219,-0.822,-0.8221,0,0,0,0,0,0,0,-0.8135,-0.8139,-0.8186,-0.8171,-0.8171,-0.8167,-0.8169,-0.8194,-0.8197,-0.8179,-0.8178,-0.8181,-0.8202,-0.821,-0.8213,-0.8251,-0.8218,-0.822,-0.8221,-0.8222,-0.8321,-0.8322,0,0,0,0,0,0,-0.8133,-0.8138,-0.8185,-0.8186,-0.815,-0.8169,-0.8172,-0.8184,-0.8197,-0.8197,-0.8182,-0.818,-0.8207,-0.821,-0.8213,-0.8258,-0.822,-0.8222,-0.8223,-0.8319,-0.8321,-0.8322,0,0,0,0,0,0,-0.8132,-0.8138,-0.8184,-0.8162,-0.8167,-0.8171,-0.8185,-0.8185,-0.8193,-0.8199,-0.8199,-0.819,-0.8206,-0.821,-0.824,-0.8259,-0.8223,-0.8225,-0.8318,-0.832,-0.8322,-0.8348,0,0,0,0,0,0,-0.813,-0.8137,-0.8152,-0.8162,-0.8169,-0.821,-0.8186,-0.8186,-0.8197,-0.8194,-0.8206,-0.8207,-0.8205,-0.8237,-0.8242,-0.8261,-0.8227,-0.8316,-0.8319,-0.8321,-0.8345,-0.835,-0.8355,0,0,0,0,0,-0.8128,-0.8158,-0.8152,-0.8158,-0.8186,-0.8211,-0.8215,-0.8212,-0.8198,-0.8213,-0.8216,-0.8207,-0.8256,-0.824,-0.8246,-0.8266,-0.8315,-0.8318,-0.8321,-0.8343,-0.8349,-0.8355,0,0,0,0,0,0,-0.8149,-0.8159,-0.8153,-0.8188,-0.8199,-0.8208,-0.8226,-0.8219,-0.8234,-0.8231,-0.8227,-0.823,-0.8261,-0.8266,-0.8248,-0.8303,-0.8283,-0.8287,-0.8298,-0.8304,-0.8309,-0.8307,-0.8229,0,0,0,0,0,-0.8158,-0.8177,-0.8185,-0.8214,-0.822,-0.8222,-0.8233,-0.823,-0.8241,-0.8246,-0.8252,-0.8263,-0.8281,-0.8293,-0.831,-0.8346,-0.8348,-0.8362,-0.8367,-0.8371,-0.8375,-0.8394,-0.8401,-0.8332,-0.8332,-0.8332,0,0,-0.8176,-0.8184,-0.8196,-0.8219,-0.8227,-0.8247,-0.8226,-0.8248,-0.8263,-0.8249,-0.8277,-0.8282,-0.8294,-0.8327,-0.8342,-0.8333,-0.8394,-0.8375,-0.8378,-0.838,-0.8398,-0.8405,-0.841,-0.8334,-0.8334,-0.8333,0,0,-0.822,-0.8227,-0.8253,-0.8262,-0.8274,-0.8275,-0.8281,-0.8292,-0.8295,-0.8323,-0.8313,-0.833,-0.8361,-0.837,-0.8379,-0.8426,-0.8417,-0.8431,-0.8456,-0.8476,-0.8481,-0.8486,-0.8502,-0.8509,-0.8435,-0.8435,-0.8435,0,-0.8241,-0.827,-0.8267,-0.8289,-0.83,-0.8288,-0.8314,-0.8322,-0.834,-0.8347,-0.8336,-0.8375,-0.8382,-0.8417,-0.8429,-0.8436,-0.8443,-0.843,-0.848,-0.8485,-0.849,-0.8506,-0.8512,-0.8437,-0.8437,-0.8436,-0.8436,0,-0.8295,-0.8316,-0.8335,-0.8352,-0.8364,-0.8389,-0.8389,-0.8402,-0.8398,-0.84,-0.8429,-0.8437,-0.8456,-0.8464,-0.846,-0.8498,-0.8492,-0.8481,-0.8461,-0.8498,-0.8513,-0.8519,-0.8439,-0.8439,-0.8438,-0.8438,0,0,-0.8353,-0.8368,-0.8375,-0.8383,-0.8396,-0.8412,-0.8435,-0.8453,-0.8464,-0.8477,-0.8496,-0.8523,-0.8512,-0.8522,-0.852,-0.8536,-0.8573,-0.8523,-0.8523,-0.8532,-0.8615,-0.8624,-0.8631,-0.8567,-0.8568,-0.8569,-0.8614,0,-0.8397,-0.8438,-0.8436,-0.8474,-0.8493,-0.8482,-0.8503,-0.8513,-0.8516,-0.8532,-0.8535,-0.8554,-0.8539,-0.8545,-0.8561,-0.8565,-0.859,-0.8562,-0.8586,-0.8586,-0.8583,-0.8639,-0.8648,-0.869,-0.862,-0.8621,-0.8622,0,-0.8454,-0.8468,-0.8509,-0.8519,-0.8527,-0.8545,-0.8561,-0.8577,-0.8589,-0.8589,-0.86,-0.8595,-0.8619,-0.8599,-0.8631,-0.8612,-0.8622,-0.8625,-0.8627,-0.8629,-0.8606,-0.8642,-0.8703,-0.8709,-0.8631,-0.863,-0.863,0,-0.8492,-0.8522,-0.8549,-0.8556,-0.8569,-0.8582,-0.8588,-0.8598,-0.8609,-0.8623,-0.863,-0.8647,-0.8656,-0.8669,-0.8668,-0.8654,-0.8702,-0.8681,-0.8703,-0.8703,-0.8714,-0.8713,-0.8777,-0.872,-0.872,-0.872,-0.8719,0,-0.8542,-0.8567,-0.8567,-0.8584,-0.8612,-0.8609,-0.8636,-0.8641,-0.865,-0.8668,-0.8659,-0.8676,-0.8674,-0.8691,-0.8691,-0.8718,-0.8722,-0.8723,-0.8723,-0.8724,-0.8724,-0.8731,-0.8728,-0.8721,-0.8721,-0.8721,-0.872,0,-0.8589,-0.859,-0.862,-0.8629,-0.8632,-0.8652,-0.866,-0.8676,-0.8678,-0.8701,-0.8706,-0.8709,-0.8729,-0.8729,-0.8752,-0.8752,-0.8785,-0.8781,-0.8781,-0.878,-0.8802,-0.88,-0.8872,-0.8881,-0.8818,-0.8819,-0.8819,0,-0.862,-0.8639,-0.8651,-0.8662,-0.8669,-0.8687,-0.8698,-0.8696,-0.8708,-0.8722,-0.8737,-0.8756,-0.8771,-0.8802,-0.8807,-0.8824,-0.8821,-0.8845,-0.8823,-0.8824,-0.8821,-0.882,-0.8822,-0.8849,-0.885,-0.885,-0.8851,0,-0.8676,-0.8676,-0.8692,-0.8709,-0.8722,-0.8735,-0.8747,-0.8757,-0.8756,-0.8769,-0.8789,-0.8801,-0.8824,-0.8843,-0.8859,-0.8865,-0.8858,-0.8857,-0.8863,-0.8865,-0.8864,-0.8865,-0.8793,-0.8856,-0.8855,-0.8855,-0.8855,-0.8854,-0.8717,-0.8733,-0.8744,-0.8762,-0.8771,-0.8782,-0.8798,-0.8802,-0.8818,-0.8837,-0.8834,-0.8857,-0.8867,-0.8889,-0.8896,-0.8914,-0.8905,-0.8914,-0.8916,-0.8919,-0.8921,-0.8861,-0.8917,-0.8917,-0.8917,-0.8916,-0.8916,0,-0.8772,-0.8779,-0.8796,-0.8812,-0.8827,-0.8819,-0.8831,-0.8844,-0.8864,-0.8874,-0.8889,-0.8912,-0.893,-0.8936,-0.8954,-0.8966,-0.8963,-0.8971,-0.897,-0.8972,-0.8927,-0.892,-0.8973,-0.8973,-0.8973,-0.8973,-0.8973,-0.8973,-0.8803,-0.883,-0.8831,-0.8863,-0.8869,-0.889,-0.8898,-0.8909,-0.8917,-0.8943,-0.8958,-0.8962,-0.897,-0.8989,-0.9005,-0.9006,-0.9013,-0.9022,-0.9022,-0.8981,-0.8975,-0.8969,-0.8963,-0.9024,-0.9024,-0.9065,-0.9065,-0.9066]},{"header":{"parameterUnit":"m.s-1","parameterCategory":1,"la1":30.2991,"la2":30.254,"lo1":-89.0895,"lo2":-89.0444,"dy":0.0017,"dx":0.0017,"nx":28,"ny":28,"refTime":"2024-04-18T21:00:00:Z","depth":0,"parameterNumber":3,"parameterNumberName":"V-component_of_WINDS"},"data":[0,0,0,0,0,0,0,0,0,0,0,0,0,0,0,0,0,0,0,0,0,0,0,0,0,0,0,0,0,0,0,0,0,0,0,0,0,0,0,0,0,0,0,0,0,0,0,0,0,0,0,0,0,0,0,0,0,0,1.234,1.2341,0,1.2358,1.2358,1.2358,1.2384,1.2385,1.2385,1.2386,1.2401,1.2401,1.24,0,0,0,0,0,0,0,0,0,0,0,0,0,1.2328,1.2328,1.234,1.2341,1.2341,1.2358,1.2358,1.2358,1.2384,1.2385,1.2385,1.2386,1.2401,1.2401,1.24,0,0,0,0,0,0,0,0,0,0,0,0,0,1.2338,1.2328,1.234,1.2356,1.2358,1.2358,1.2358,1.2358,1.2384,1.2385,1.2386,1.2386,1.2401,1.2401,1.24,1.2386,0,0,1.24,1.24,0,0,0,0,0,0,0,0,1.2338,1.2339,1.2354,1.2355,1.2357,1.237,1.2359,1.2367,1.2384,1.2374,1.2386,1.2387,1.239,1.239,1.2392,1.2386,1.2387,1.24,1.24,1.24,1.24,0,0,0,0,0,0,0,1.2337,1.2338,1.2347,1.2354,1.2356,1.2362,1.2364,1.2361,1.2377,1.2375,1.2377,1.2379,1.2391,1.2392,1.2392,1.2387,1.24,1.24,1.24,1.24,1.2371,1.237,0,0,0,0,0,0,1.2334,1.2337,1.2347,1.2348,1.2349,1.2361,1.2364,1.2365,1.2378,1.238,1.2378,1.238,1.2392,1.2393,1.2393,1.2377,1.24,1.24,1.24,1.2371,1.237,1.237,0,0,0,0,0,0,1.2334,1.2335,1.2346,1.2343,1.2345,1.2361,1.2362,1.2365,1.2366,1.238,1.2383,1.2377,1.2392,1.2393,1.2388,1.2378,1.24,1.24,1.2372,1.2371,1.237,1.2344,0,0,0,0,0,0,1.2333,1.2335,1.2329,1.2343,1.2345,1.2341,1.2361,1.2364,1.2366,1.2369,1.2379,1.2382,1.2393,1.2388,1.2387,1.2378,1.24,1.2373,1.2372,1.237,1.2346,1.2342,1.2339,0,0,0,0,0,1.2333,1.2321,1.2329,1.233,1.2339,1.234,1.2341,1.2355,1.2365,1.236,1.2369,1.2381,1.2379,1.2387,1.2387,1.2377,1.2374,1.2372,1.2371,1.2347,1.2343,1.2339,0,0,0,0,0,0,1.2304,1.2323,1.2332,1.2324,1.233,1.2344,1.2338,1.235,1.2353,1.2355,1.2371,1.2373,1.2366,1.2371,1.2379,1.2364,1.2378,1.2377,1.236,1.2356,1.2353,1.2352,1.24,0,0,0,0,0,1.2297,1.2297,1.2313,1.2304,1.2307,1.2322,1.2323,1.2333,1.234,1.2343,1.2351,1.2357,1.2357,1.2357,1.2358,1.2347,1.2349,1.234,1.2337,1.2334,1.2332,1.2327,1.2323,1.2364,1.2364,1.2364,0,0,1.2282,1.2292,1.2291,1.2299,1.2305,1.2304,1.2324,1.2322,1.2321,1.2342,1.2338,1.2344,1.2351,1.2343,1.2339,1.2347,1.2321,1.2332,1.233,1.2329,1.2325,1.2321,1.2317,1.2363,1.2363,1.2364,0,0,1.2255,1.2262,1.2256,1.2262,1.2272,1.2282,1.2281,1.2293,1.2299,1.2295,1.2311,1.231,1.231,1.2315,1.2317,1.2293,1.2304,1.2293,1.2274,1.2269,1.2266,1.2263,1.2254,1.225,1.2291,1.2291,1.2291,0,1.2235,1.2235,1.2251,1.2249,1.2252,1.2272,1.2265,1.227,1.2279,1.228,1.2289,1.2291,1.2297,1.229,1.2284,1.2285,1.2284,1.2291,1.2265,1.2262,1.226,1.2251,1.2248,1.2289,1.2289,1.229,1.229,0,1.2209,1.2209,1.2203,1.2213,1.2215,1.221,1.2226,1.2226,1.2236,1.2245,1.2241,1.225,1.2253,1.2252,1.2262,1.2247,1.2251,1.2262,1.2277,1.2254,1.2247,1.2244,1.2287,1.2288,1.2288,1.2288,0,0,1.2163,1.2183,1.2181,1.2186,1.2198,1.2198,1.2194,1.2199,1.2199,1.2204,1.2201,1.2202,1.2213,1.2215,1.2226,1.2221,1.2201,1.2233,1.2233,1.2226,1.2185,1.2176,1.2172,1.2209,1.2208,1.2208,1.2184,0,1.2138,1.2134,1.2149,1.2141,1.2141,1.216,1.2157,1.2164,1.2173,1.2173,1.2183,1.2183,1.2197,1.2199,1.2195,1.2204,1.2193,1.2206,1.2206,1.2205,1.2203,1.2168,1.2159,1.2136,1.2181,1.2181,1.218,0,1.2107,1.2113,1.2105,1.2119,1.2119,1.2116,1.2122,1.2123,1.2131,1.2138,1.2141,1.2154,1.2151,1.2166,1.2161,1.217,1.2171,1.2175,1.2175,1.2175,1.2191,1.2167,1.2129,1.2125,1.2176,1.2176,1.2176,0,1.2074,1.208,1.2076,1.2079,1.2095,1.2093,1.2099,1.2109,1.2111,1.2115,1.2117,1.2121,1.2123,1.2125,1.2138,1.2148,1.2132,1.2148,1.2137,1.2137,1.2133,1.2133,1.2094,1.2134,1.2134,1.2134,1.2134,0,1.2044,1.2038,1.2061,1.2059,1.2053,1.2071,1.2064,1.2072,1.2081,1.2079,1.2096,1.2095,1.2113,1.2113,1.2123,1.2118,1.2119,1.2124,1.2126,1.2122,1.2121,1.2122,1.2124,1.2133,1.2133,1.2133,1.2133,0,1.2006,1.2021,1.2018,1.2034,1.2038,1.2033,1.2046,1.2044,1.2055,1.2053,1.2054,1.207,1.2071,1.2085,1.2088,1.2095,1.2086,1.2092,1.2084,1.2085,1.2074,1.2074,1.2034,1.2029,1.2072,1.2072,1.2071,0,1.1985,1.1981,1.1998,1.1999,1.2005,1.2006,1.2009,1.2026,1.2028,1.2038,1.2035,1.2038,1.2041,1.2042,1.2053,1.2057,1.2062,1.2048,1.2063,1.2059,1.2062,1.2062,1.2061,1.2044,1.2044,1.2043,1.2043,0,1.1947,1.1955,1.1959,1.1965,1.1968,1.1974,1.198,1.198,1.1999,1.2,1.2003,1.2005,1.201,1.2013,1.2018,1.2024,1.2036,1.2039,1.2036,1.2031,1.2027,1.2029,1.2075,1.2039,1.204,1.204,1.204,1.204,1.1917,1.1915,1.1926,1.193,1.1937,1.1943,1.1942,1.1953,1.1955,1.1962,1.1972,1.1972,1.1981,1.199,1.1995,1.1995,1.2003,1.1999,1.1998,1.1997,1.1995,1.2027,1.1996,1.1996,1.1997,1.1997,1.1997,0,1.1879,1.1888,1.1891,1.1901,1.1904,1.1917,1.1925,1.1926,1.1927,1.1935,1.1938,1.1941,1.1944,1.1956,1.196,1.1958,1.1964,1.1958,1.1958,1.1959,1.1988,1.199,1.1954,1.1954,1.1954,1.1954,1.1954,1.1954,1.186,1.1858,1.1867,1.1868,1.1877,1.1878,1.1882,1.1887,1.1894,1.1897,1.19,1.1908,1.1917,1.1922,1.1925,1.1929,1.1929,1.1922,1.1927,1.1953,1.1957,1.1961,1.1963,1.1922,1.1922,1.1899,1.1898,1.1898]}]]